EN

Hourly Weather Ozumiech

Today, 1 March, Monday

Time Temperature Precipitation Wind Pressure Humidity
00:00 0°C° 0 mm 3 mps 759 mmHg 94%
01:00 -1°C° 0 mm 3 mps 759 mmHg 94%
02:00 -1°C° 0 mm 3 mps 759 mmHg 94%
03:00 -1°C° 0 mm 2 mps 759 mmHg 94%
04:00 -1°C° 0 mm 2 mps 759 mmHg 94%
05:00 -1°C° 0 mm 2 mps 759 mmHg 93%
06:00 -1°C° 0 mm 2 mps 760 mmHg 93%
07:00 -1°C° 0 mm 2 mps 760 mmHg 93%
08:00 +2°C° 0 mm 2 mps 760 mmHg 86%
09:00 +4°C° 0 mm 2 mps 760 mmHg 80%
10:00 +5°C° 0 mm 2 mps 760 mmHg 73%
11:00 +6°C° 0 mm 2 mps 760 mmHg 70%
12:00 +7°C° 0 mm 3 mps 760 mmHg 67%
13:00 +8°C° 0 mm 3 mps 761 mmHg 64%
14:00 +8°C° 0 mm 3 mps 760 mmHg 66%
15:00 +7°C° 0 mm 4 mps 760 mmHg 69%
16:00 +6°C° 0 mm 4 mps 760 mmHg 71%
17:00 +5°C° 0 mm 4 mps 759 mmHg 77%
18:00 +4°C° 0 mm 4 mps 759 mmHg 83%
19:00 +3°C° 0 mm 4 mps 759 mmHg 89%
20:00 +3°C° 0 mm 4 mps 759 mmHg 89%
21:00 +1°C° 0 mm 4 mps 759 mmHg 90%
22:00 +1°C° 0 mm 4 mps 759 mmHg 90%
23:00 +1°C° 0 mm 4 mps 759 mmHg 90%

Tomorrow, 2 March, Tuesday

Time Temperature Precipitation Wind Pressure Humidity
00:00 +1°C° 0 mm 5 mps 759 mmHg 90%
01:00 +1°C° 0 mm 5 mps 759 mmHg 90%
02:00 0°C° 0 mm 5 mps 758 mmHg 90%
03:00 0°C° 0 mm 5 mps 758 mmHg 90%
04:00 0°C° 0 mm 5 mps 757 mmHg 90%
05:00 -1°C° 0 mm 5 mps 757 mmHg 90%
06:00 -1°C° 0 mm 5 mps 757 mmHg 90%
07:00 -1°C° 0 mm 5 mps 757 mmHg 90%
08:00 +1°C° 0 mm 5 mps 757 mmHg 84%
09:00 +2°C° 0 mm 6 mps 757 mmHg 79%
10:00 +4°C° 0 mm 6 mps 757 mmHg 73%
11:00 +5°C° 0 mm 6 mps 757 mmHg 71%
12:00 +7°C° 0 mm 6 mps 758 mmHg 68%
13:00 +8°C° 0 mm 6 mps 758 mmHg 65%
14:00 +7°C° 0 mm 5 mps 758 mmHg 67%
15:00 +7°C° 0 mm 5 mps 757 mmHg 69%
16:00 +7°C° 0 mm 4 mps 757 mmHg 71%
17:00 +6°C° 0 mm 4 mps 758 mmHg 77%
18:00 +4°C° 0 mm 4 mps 758 mmHg 84%
19:00 +3°C° 0 mm 3 mps 758 mmHg 90%
20:00 +2°C° 0 mm 3 mps 759 mmHg 90%
21:00 +1°C° 0 mm 3 mps 759 mmHg 91%
22:00 +2°C° 0 mm 2 mps 759 mmHg 91%
23:00 +1°C° 0 mm 2 mps 759 mmHg 90%

Day after tomorrow, 3 March, Wednesday

Time Temperature Precipitation Wind Pressure Humidity
00:00 -1°C° 0 mm 2 mps 760 mmHg 88%
01:00 -1°C° 0 mm 2 mps 760 mmHg 86%
02:00 +1°C° 0 mm 1 mps 759 mmHg 84%
03:00 +1°C° 0 mm 1 mps 759 mmHg 82%
04:00 +1°C° 0 mm 1 mps 759 mmHg 80%
05:00 0°C° 0 mm 0 mps 759 mmHg 79%
06:00 0°C° 0 mm 0 mps 759 mmHg 77%
07:00 0°C° 0 mm 0 mps 759 mmHg 75%
08:00 +3°C° 0 mm 1 mps 759 mmHg 68%
09:00 +4°C° 0 mm 1 mps 759 mmHg 60%
10:00 +5°C° 0 mm 2 mps 758 mmHg 53%
11:00 +6°C° 0 mm 2 mps 758 mmHg 50%
12:00 +7°C° 0 mm 2 mps 757 mmHg 47%
13:00 +8°C° 0 mm 2 mps 757 mmHg 44%
14:00 +8°C° 0 mm 2 mps 756 mmHg 50%
15:00 +7°C° 0 mm 2 mps 755 mmHg 55%
16:00 +7°C° 0 mm 2 mps 754 mmHg 61%
17:00 +5°C° 0 mm 3 mps 754 mmHg 69%
18:00 +4°C° 0 mm 3 mps 753 mmHg 78%
19:00 +2°C° 0 mm 3 mps 753 mmHg 86%
20:00 +2°C° 0 mm 3 mps 752 mmHg 87%
21:00 +2°C° 0 mm 3 mps 751 mmHg 88%
22:00 +2°C° 0 mm 3 mps 750 mmHg 89%
23:00 +1°C° 0 mm 3 mps 750 mmHg 88%

4 March, Thursday

Time Temperature Precipitation Wind Pressure Humidity
00:00 +1°C° 0 mm 3 mps 749 mmHg 87%
01:00 +1°C° 0 mm 3 mps 748 mmHg 87%
02:00 +1°C° 0 mm 3 mps 748 mmHg 88%
03:00 -1°C° 0 mm 4 mps 747 mmHg 89%
04:00 -1°C° 0 mm 4 mps 746 mmHg 91%
05:00 -1°C° 0 mm 4 mps 746 mmHg 92%
06:00 -1°C° 0 mm 4 mps 745 mmHg 93%
07:00 -1°C° 0 mm 4 mps 745 mmHg 94%
08:00 0°C° 0 mm 4 mps 745 mmHg 90%
09:00 +1°C° 0 mm 4 mps 745 mmHg 86%
10:00 +3°C° 0 mm 5 mps 745 mmHg 81%
11:00 +3°C° 0 mm 5 mps 745 mmHg 76%
12:00 +5°C° 0 mm 4 mps 744 mmHg 72%
13:00 +6°C° 0 mm 4 mps 744 mmHg 67%
14:00 +5°C° 0 mm 4 mps 744 mmHg 69%
15:00 +5°C° 0 mm 4 mps 744 mmHg 71%
16:00 +4°C° 0 mm 4 mps 744 mmHg 73%
17:00 +3°C° 0 mm 3 mps 744 mmHg 77%
18:00 +2°C° 0 mm 3 mps 744 mmHg 81%
19:00 +2°C° 0 mm 3 mps 744 mmHg 85%
20:00 +1°C° 0 mm 3 mps 744 mmHg 84%
21:00 0°C° 0 mm 3 mps 744 mmHg 84%
22:00 0°C° 0 mm 3 mps 744 mmHg 83%
23:00 -2°C° 0.1 mm 4 mps 744 mmHg 86%

5 March, Friday

Time Temperature Precipitation Wind Pressure Humidity
00:00 -2°C° 0.1 mm 4 mps 744 mmHg 89%
01:00 -3°C° 0.1 mm 4 mps 744 mmHg 93%
02:00 -3°C° 0.2 mm 4 mps 744 mmHg 90%
03:00 -3°C° 0.2 mm 4 mps 744 mmHg 88%
04:00 -4°C° 0.2 mm 4 mps 744 mmHg 86%
05:00 -4°C° 0 mm 4 mps 744 mmHg 82%
06:00 -3°C° 0 mm 4 mps 744 mmHg 77%
07:00 -3°C° 0 mm 4 mps 744 mmHg 73%
08:00 -3°C° 0 mm 4 mps 745 mmHg 67%
09:00 -2°C° 0 mm 4 mps 745 mmHg 62%
10:00 -2°C° 0 mm 5 mps 745 mmHg 57%
11:00 -1°C° 0 mm 5 mps 746 mmHg 50%
12:00 0°C° 0 mm 5 mps 746 mmHg 44%
13:00 0°C° 0 mm 5 mps 746 mmHg 37%
14:00 0°C° 0 mm 5 mps 747 mmHg 41%
15:00 0°C° 0 mm 5 mps 747 mmHg 45%
16:00 -1°C° 0 mm 5 mps 747 mmHg 49%
17:00 -2°C° 0 mm 5 mps 748 mmHg 53%
18:00 -4°C° 0 mm 5 mps 748 mmHg 58%
19:00 -5°C° 0 mm 4 mps 749 mmHg 62%
20:00 -5°C° 0 mm 4 mps 750 mmHg 65%
21:00 -5°C° 0 mm 4 mps 750 mmHg 67%
22:00 -5°C° 0 mm 3 mps 751 mmHg 70%
23:00 -5°C° 0 mm 3 mps 751 mmHg 70%

6 March, Saturday

Time Temperature Precipitation Wind Pressure Humidity
00:00 -5°C° 0 mm 3 mps 752 mmHg 71%
01:00 -5°C° 0 mm 3 mps 752 mmHg 72%
02:00 -5°C° 0 mm 4 mps 752 mmHg 70%
03:00 -5°C° 0 mm 4 mps 753 mmHg 67%
04:00 -5°C° 0 mm 4 mps 753 mmHg 64%
05:00 -5°C° 0 mm 4 mps 754 mmHg 63%
06:00 -5°C° 0 mm 4 mps 754 mmHg 63%
07:00 -5°C° 0 mm 4 mps 755 mmHg 62%
08:00 -4°C° 0 mm 4 mps 755 mmHg 57%
09:00 -4°C° 0 mm 5 mps 756 mmHg 53%
10:00 -2°C° 0 mm 5 mps 756 mmHg 48%
11:00 -2°C° 0.1 mm 5 mps 756 mmHg 47%
12:00 -1°C° 0.1 mm 5 mps 757 mmHg 47%
13:00 -1°C° 0.1 mm 5 mps 757 mmHg 47%
14:00 -1°C° 0.1 mm 5 mps 757 mmHg 48%
15:00 -1°C° 0.1 mm 5 mps 757 mmHg 49%
16:00 -1°C° 0.1 mm 5 mps 757 mmHg 49%
17:00 -3°C° 0 mm 4 mps 757 mmHg 54%
18:00 -4°C° 0 mm 3 mps 758 mmHg 58%
19:00 -4°C° 0 mm 2 mps 758 mmHg 63%
20:00 -4°C° 0 mm 2 mps 758 mmHg 63%
21:00 -4°C° 0 mm 2 mps 758 mmHg 63%
22:00 -5°C° 0 mm 3 mps 758 mmHg 64%
23:00 -5°C° 0 mm 3 mps 758 mmHg 64%
Show more

We Need Your Consent

Meteoprog and our Service Providers may store and access personal data such as cookies, device identifiers or other similar technologies on your device and process such data to personalise content and ads, as well as provide social media features and to analyse the traffic.

  • Store and/or access information on your device

    Cookies, device identifiers or other information can be stored or accessed on your device for the purposes indicated above.

  • Personalised ads and content, ad and content measurement, audience insights, and products development

    Ads and content can be personalised based on a profile. More data can be added to better personalise ads and content. Ad and content performance can be measured. Insights about the audience who saw the ads and content can be derived. Such data can be used to develop or improve user’s experience, systems and software.

By clicking ‘I Agree’ you will allow the use of indicated cookies, device identifiers, web beacons or other similar technologies. Your settings can be changed in the browser on your device.

For certain purposes, legitimate interests may be relied on, rather than consent. You can read more about this in our Privacy and Cookie Policy.